User: anonymous   Login
Location: Unspecified
(0.0000°N, 0.0000°E)
Time: 15:24:01
(UTC+00:00)
Language:

N. Korean satellite - Orbit

View from above orbital plane
View from above orbital plane
View from above satellite
View from above satellite

Ground track
Ground track

The orbit data is extracted from the following two-line orbital elements,

1 39026U 12072A   16149.84787240  .00002815  00000-0  11747-3 0  9992
2 39026  97.2494 174.7077 0044560  95.7119 264.9202 15.23554099191437
Epoch (UTC): 28 May 2016 20:20:56
Eccentricity: 0.0044560
inclination: 97.2494°
perigee height: 464 km
apogee height: 526 km
right ascension of ascending node: 174.7077°
argument of perigee: 95.7119°
revolutions per day: 15.23554099
mean anomaly at epoch: 264.9202°
orbit number at epoch: 19143

The dashed part of the orbit path shows where the satellite is in the earth's shadow,  

DLR